Time,TemperatureF,DewpointF,PressureIn,WindDirection,WindDirectionDegrees,WindSpeedMPH,WindSpeedGustMPH,Humidity,HourlyPrecipIn,Conditions,Clouds,dailyrainin,SoftwareType,DateUTC
2013-01-16 00:05:00,31.2,25.1,30.25,NNW,338,0.0,3.0,78,0.00,,,0.00,Wunderground v.1.13,2013-01-16 05:05:00,
2013-01-16 00:10:00,31.2,25.1,30.24,NNW,338,0.0,3.0,78,0.00,,,0.00,Wunderground v.1.13,2013-01-16 05:10:00,
2013-01-16 00:15:00,31.2,25.1,30.25,NNW,338,0.0,3.0,78,0.00,,,0.00,Wunderground v.1.13,2013-01-16 05:15:00,
2013-01-16 00:20:00,31.2,25.1,30.25,NNW,338,0.0,3.0,78,0.00,,,0.00,Wunderground v.1.13,2013-01-16 05:20:00,
2013-01-16 00:30:00,31.2,24.8,30.26,NNW,337,0.0,3.0,77,0.00,,,0.00,Wunderground v.1.13,2013-01-16 05:30:00,
2013-01-16 00:35:00,31.3,25.2,30.26,NNW,338,0.0,3.0,78,0.00,,,0.00,Wunderground v.1.13,2013-01-16 05:35:00,
2013-01-16 00:40:00,31.3,25.2,30.26,NNW,337,0.0,3.0,78,0.00,,,0.00,Wunderground v.1.13,2013-01-16 05:40:00,
2013-01-16 00:45:00,31.4,25.3,30.25,NNW,337,0.0,3.0,78,0.00,,,0.00,Wunderground v.1.13,2013-01-16 05:45:00,
2013-01-16 00:55:00,31.4,25.3,30.25,NNW,337,0.0,3.0,78,0.00,,,0.00,Wunderground v.1.13,2013-01-16 05:55:00,
2013-01-16 01:05:00,31.5,25.4,30.24,N/A,-737280,0.0,0.0,78,0.00,,,0.00,Wunderground v.1.13,2013-01-16 06:05:00,
2013-01-16 01:15:00,31.5,25.1,30.23,NNW,337,0.0,0.0,77,0.00,,,0.00,Wunderground v.1.13,2013-01-16 06:15:00,
2013-01-16 01:20:00,31.6,24.9,30.24,NNW,338,0.0,0.0,76,0.00,,,0.00,Wunderground v.1.13,2013-01-16 06:20:00,
2013-01-16 01:25:00,31.6,24.9,30.24,NNW,338,0.0,0.0,76,0.00,,,0.00,Wunderground v.1.13,2013-01-16 06:25:00,
2013-01-16 01:35:00,31.7,25.0,30.24,NNW,338,0.0,0.0,76,0.00,,,0.00,Wunderground v.1.13,2013-01-16 06:35:00,
2013-01-16 01:40:00,31.7,25.0,30.24,NNW,338,0.0,0.0,76,0.00,,,0.00,Wunderground v.1.13,2013-01-16 06:40:00,
2013-01-16 01:45:00,31.8,25.1,30.23,NNW,337,0.0,0.0,76,0.00,,,0.00,Wunderground v.1.13,2013-01-16 06:45:00,
2013-01-16 01:55:00,31.8,25.1,30.24,NNW,338,0.0,0.0,76,0.00,,,0.00,Wunderground v.1.13,2013-01-16 06:55:00,
2013-01-16 02:00:00,31.9,25.2,30.24,NNW,337,0.0,0.0,76,0.00,,,0.00,Wunderground v.1.13,2013-01-16 07:00:00,
2013-01-16 02:10:00,31.9,25.2,30.24,NNW,338,0.0,0.0,76,0.00,,,0.00,Wunderground v.1.13,2013-01-16 07:10:00,
2013-01-16 02:15:00,31.9,25.2,30.24,NNW,338,0.0,0.0,76,0.00,,,0.00,Wunderground v.1.13,2013-01-16 07:15:00,
2013-01-16 02:25:00,31.8,25.1,30.23,NNW,337,0.0,0.0,76,0.00,,,0.00,Wunderground v.1.13,2013-01-16 07:25:00,
2013-01-16 02:30:00,31.8,25.1,30.24,NNW,338,0.0,0.0,76,0.00,,,0.00,Wunderground v.1.13,2013-01-16 07:30:00,
2013-01-16 02:35:00,31.8,25.1,30.23,NNW,337,0.0,0.0,76,0.00,,,0.00,Wunderground v.1.13,2013-01-16 07:35:00,
2013-01-16 02:40:00,31.8,25.1,30.23,NNW,338,0.0,0.0,76,0.00,,,0.00,Wunderground v.1.13,2013-01-16 07:40:00,
2013-01-16 02:50:00,31.7,25.0,30.23,NNW,338,0.0,0.0,76,0.00,,,0.00,Wunderground v.1.13,2013-01-16 07:50:00,
2013-01-16 02:55:00,31.7,25.0,30.23,NNW,338,0.0,0.0,76,0.00,,,0.00,Wunderground v.1.13,2013-01-16 07:55:00,
2013-01-16 03:00:00,31.7,25.0,30.23,NNW,337,0.0,0.0,76,0.00,,,0.00,Wunderground v.1.13,2013-01-16 08:00:00,
2013-01-16 03:10:00,31.7,24.7,30.22,NNW,337,0.0,0.0,75,0.00,,,0.00,Wunderground v.1.13,2013-01-16 08:10:00,
2013-01-16 03:15:00,31.7,24.7,30.22,NNW,337,0.0,0.0,75,0.00,,,0.00,Wunderground v.1.13,2013-01-16 08:15:00,
2013-01-16 03:20:00,31.7,24.7,30.21,NNW,338,0.0,0.0,75,0.00,,,0.00,Wunderground v.1.13,2013-01-16 08:20:00,
2013-01-16 03:25:00,31.7,24.7,30.21,NNW,338,0.0,0.0,75,0.00,,,0.00,Wunderground v.1.13,2013-01-16 08:25:00,
2013-01-16 03:35:00,31.7,24.7,30.20,NNW,337,0.0,0.0,75,0.00,,,0.00,Wunderground v.1.13,2013-01-16 08:35:00,
2013-01-16 03:40:00,31.7,24.7,30.20,NNW,338,0.0,0.0,75,0.00,,,0.00,Wunderground v.1.13,2013-01-16 08:40:00,
2013-01-16 03:45:00,31.6,24.3,30.19,NNW,338,0.0,0.0,74,0.00,,,0.00,Wunderground v.1.13,2013-01-16 08:45:00,
2013-01-16 03:55:00,31.6,24.6,30.18,NNW,337,0.0,0.0,75,0.00,,,0.00,Wunderground v.1.13,2013-01-16 08:55:00,
2013-01-16 04:00:00,31.6,24.6,30.18,NNW,338,0.0,0.0,75,0.00,,,0.00,Wunderground v.1.13,2013-01-16 09:00:00,
2013-01-16 04:05:00,31.6,24.6,30.18,NNW,338,0.0,0.0,75,0.00,,,0.00,Wunderground v.1.13,2013-01-16 09:05:00,
2013-01-16 04:15:00,31.6,24.6,30.18,NNW,338,0.0,0.0,75,0.00,,,0.00,Wunderground v.1.13,2013-01-16 09:15:00,
2013-01-16 04:20:00,31.5,24.8,30.18,NNW,338,0.0,0.0,76,0.00,,,0.00,Wunderground v.1.13,2013-01-16 09:20:00,
2013-01-16 04:25:00,31.5,25.1,30.18,NNW,337,0.0,0.0,77,0.00,,,0.00,Wunderground v.1.13,2013-01-16 09:25:00,
2013-01-16 04:30:00,31.5,25.1,30.18,NNW,338,0.0,0.0,77,0.00,,,0.00,Wunderground v.1.13,2013-01-16 09:30:00,
2013-01-16 04:40:00,31.3,25.2,30.17,NNW,338,0.0,0.0,78,0.00,,,0.00,Wunderground v.1.13,2013-01-16 09:40:00,
2013-01-16 04:45:00,31.2,25.4,30.17,NNW,338,0.0,0.0,79,0.00,,,0.00,Wunderground v.1.13,2013-01-16 09:45:00,
2013-01-16 04:55:00,31.0,25.6,30.16,NNW,337,0.0,0.0,80,0.00,,,0.00,Wunderground v.1.13,2013-01-16 09:55:00,
2013-01-16 05:00:00,30.8,25.7,30.16,NNW,338,0.0,0.0,81,0.00,,,0.00,Wunderground v.1.13,2013-01-16 10:00:00,
2013-01-16 05:05:00,30.7,25.6,30.16,NNW,338,0.0,0.0,81,0.00,,,0.00,Wunderground v.1.13,2013-01-16 10:05:00,
2013-01-16 05:10:00,30.5,25.7,30.15,NNW,337,0.0,0.0,82,0.00,,,0.00,Wunderground v.1.13,2013-01-16 10:10:00,
2013-01-16 05:20:00,30.2,25.7,30.15,NNW,338,0.0,0.0,83,0.00,,,0.00,Wunderground v.1.13,2013-01-16 10:20:00,
2013-01-16 05:25:00,30.1,25.6,30.15,NNW,338,0.0,0.0,83,0.00,,,0.00,Wunderground v.1.13,2013-01-16 10:25:00,
2013-01-16 05:30:00,29.9,25.4,30.15,NNW,337,0.0,0.0,83,0.00,,,0.00,Wunderground v.1.13,2013-01-16 10:30:00,
2013-01-16 05:40:00,29.7,25.5,30.15,NNW,338,0.0,0.0,84,0.00,,,0.00,Wunderground v.1.13,2013-01-16 10:40:00,
2013-01-16 05:45:00,29.6,25.6,30.15,NNW,338,0.0,0.0,85,0.00,,,0.00,Wunderground v.1.13,2013-01-16 10:45:00,
2013-01-16 05:50:00,29.4,25.4,30.14,NNW,337,0.0,0.0,85,0.00,,,0.00,Wunderground v.1.13,2013-01-16 10:50:00,
2013-01-16 06:00:00,29.3,25.4,30.14,NNW,338,0.0,0.0,85,0.00,,,0.00,Wunderground v.1.13,2013-01-16 11:00:00,
2013-01-16 06:05:00,29.2,25.3,30.14,NNW,338,0.0,0.0,85,0.00,,,0.00,Wunderground v.1.13,2013-01-16 11:05:00,
2013-01-16 06:10:00,29.1,25.4,30.14,NNW,338,0.0,2.0,86,0.00,,,0.00,Wunderground v.1.13,2013-01-16 11:10:00,
2013-01-16 06:20:00,29.0,25.3,30.14,NNW,338,0.0,0.0,86,0.00,,,0.00,Wunderground v.1.13,2013-01-16 11:20:00,
2013-01-16 06:25:00,28.9,25.2,30.13,NNW,338,0.0,0.0,86,0.00,,,0.00,Wunderground v.1.13,2013-01-16 11:25:00,
2013-01-16 06:30:00,28.8,25.4,30.14,NNW,337,0.0,0.0,87,0.00,,,0.00,Wunderground v.1.13,2013-01-16 11:30:00,
2013-01-16 06:40:00,28.7,25.3,30.13,NNW,338,0.0,0.0,87,0.00,,,0.00,Wunderground v.1.13,2013-01-16 11:40:00,
2013-01-16 06:45:00,28.7,25.3,30.13,NNW,338,0.0,0.0,87,0.00,,,0.00,Wunderground v.1.13,2013-01-16 11:45:00,
2013-01-16 06:50:00,28.6,25.2,30.13,NNW,337,0.0,0.0,87,0.00,,,0.00,Wunderground v.1.13,2013-01-16 11:50:00,
2013-01-16 07:00:00,28.5,25.1,30.13,NNW,338,0.0,0.0,87,0.00,,,0.00,Wunderground v.1.13,2013-01-16 12:00:00,
2013-01-16 07:05:00,28.5,25.4,30.13,NNW,338,0.0,0.0,88,0.00,,,0.00,Wunderground v.1.13,2013-01-16 12:05:00,
2013-01-16 07:10:00,28.5,25.4,30.13,NNW,337,0.0,0.0,88,0.00,,,0.00,Wunderground v.1.13,2013-01-16 12:10:00,
2013-01-16 07:20:00,28.5,25.4,30.11,NNW,338,0.0,0.0,88,0.00,,,0.00,Wunderground v.1.13,2013-01-16 12:20:00,
2013-01-16 07:25:00,28.5,25.4,30.11,NNW,337,0.0,0.0,88,0.00,,,0.00,Wunderground v.1.13,2013-01-16 12:25:00,
2013-01-16 07:30:00,28.5,25.4,30.11,NNW,337,0.0,0.0,88,0.00,,,0.00,Wunderground v.1.13,2013-01-16 12:30:00,
2013-01-16 07:35:00,28.4,25.3,30.11,NNW,338,0.0,0.0,88,0.00,,,0.00,Wunderground v.1.13,2013-01-16 12:35:00,
2013-01-16 07:45:00,28.4,25.6,30.10,NNW,338,0.0,0.0,89,0.00,,,0.00,Wunderground v.1.13,2013-01-16 12:45:00,
2013-01-16 07:50:00,28.4,25.6,30.10,NNW,337,0.0,0.0,89,0.00,,,0.00,Wunderground v.1.13,2013-01-16 12:50:00,
2013-01-16 07:55:00,28.4,25.6,30.10,NNW,338,0.0,0.0,89,0.00,,,0.00,Wunderground v.1.13,2013-01-16 12:55:00,
2013-01-16 08:05:00,28.4,25.6,30.09,NNW,337,0.0,0.0,89,0.00,,,0.00,Wunderground v.1.13,2013-01-16 13:05:00,
2013-01-16 08:10:00,28.4,25.6,30.10,NNW,338,0.0,0.0,89,0.00,,,0.00,Wunderground v.1.13,2013-01-16 13:10:00,
2013-01-16 08:15:00,28.5,25.7,30.10,NNW,338,0.0,0.0,89,0.00,,,0.00,Wunderground v.1.13,2013-01-16 13:15:00,
2013-01-16 08:25:00,28.5,25.7,30.09,NNW,337,0.0,0.0,89,0.00,,,0.00,Wunderground v.1.13,2013-01-16 13:25:00,
2013-01-16 08:30:00,28.5,25.7,30.09,NNW,337,0.0,0.0,89,0.00,,,0.00,Wunderground v.1.13,2013-01-16 13:30:00,
2013-01-16 08:35:00,28.6,26.0,30.10,NNW,338,0.0,0.0,90,0.00,,,0.00,Wunderground v.1.13,2013-01-16 13:35:00,
2013-01-16 08:40:00,28.6,26.0,30.09,NNW,337,0.0,0.0,90,0.00,,,0.00,Wunderground v.1.13,2013-01-16 13:40:00,
2013-01-16 08:50:00,28.7,26.1,30.09,NNW,338,0.0,0.0,90,0.00,,,0.00,Wunderground v.1.13,2013-01-16 13:50:00,
2013-01-16 08:55:00,28.7,26.1,30.09,NNW,338,0.0,0.0,90,0.00,,,0.00,Wunderground v.1.13,2013-01-16 13:55:00,
2013-01-16 09:00:00,28.8,26.2,30.09,NNW,337,0.0,0.0,90,0.00,,,0.00,Wunderground v.1.13,2013-01-16 14:00:00,
2013-01-16 09:10:00,28.9,26.3,30.07,NNW,337,0.0,0.0,90,0.00,,,0.00,Wunderground v.1.13,2013-01-16 14:10:00,
2013-01-16 09:15:00,29.0,26.7,30.07,NNW,337,0.0,0.0,91,0.00,,,0.00,Wunderground v.1.13,2013-01-16 14:15:00,
2013-01-16 09:20:00,29.1,26.8,30.06,NNW,338,0.0,0.0,91,0.00,,,0.00,Wunderground v.1.13,2013-01-16 14:20:00,
2013-01-16 09:25:00,29.2,26.9,30.06,NNW,338,0.0,0.0,91,0.00,,,0.00,Wunderground v.1.13,2013-01-16 14:25:00,
2013-01-16 09:35:00,29.5,27.2,30.05,NNW,338,0.0,0.0,91,0.00,,,0.00,Wunderground v.1.13,2013-01-16 14:35:00,
2013-01-16 09:40:00,29.6,27.3,30.04,NNW,338,0.0,0.0,91,0.00,,,0.00,Wunderground v.1.13,2013-01-16 14:40:00,
2013-01-16 09:50:00,29.9,27.6,30.02,NNW,337,0.0,0.0,91,0.00,,,0.00,Wunderground v.1.13,2013-01-16 14:50:00,
2013-01-16 09:55:00,30.0,27.7,30.02,NNW,338,0.0,0.0,91,0.00,,,0.00,Wunderground v.1.13,2013-01-16 14:55:00,
2013-01-16 10:00:00,30.1,27.8,30.01,NNW,337,0.0,0.0,91,0.00,,,0.00,Wunderground v.1.13,2013-01-16 15:00:00,
2013-01-16 10:10:00,30.3,28.0,30.00,NNW,337,0.0,0.0,91,0.00,,,0.00,Wunderground v.1.13,2013-01-16 15:10:00,
2013-01-16 10:15:00,30.3,28.0,29.99,NNW,338,0.0,0.0,91,0.00,,,0.00,Wunderground v.1.13,2013-01-16 15:15:00,
2013-01-16 10:20:00,30.3,28.0,29.99,NNW,338,0.0,0.0,91,0.00,,,0.00,Wunderground v.1.13,2013-01-16 15:20:00,
2013-01-16 10:30:00,30.5,28.2,29.98,NNW,338,0.0,0.0,91,0.00,,,0.00,Wunderground v.1.13,2013-01-16 15:30:00,
2013-01-16 10:35:00,30.5,28.2,30.00,NNW,338,0.0,0.0,91,0.00,,,0.00,Wunderground v.1.13,2013-01-16 15:35:00,
2013-01-16 10:40:00,30.7,28.4,30.00,NNW,337,0.0,0.0,91,0.00,,,0.00,Wunderground v.1.13,2013-01-16 15:40:00,
2013-01-16 10:45:00,30.7,28.4,29.99,NNW,338,0.0,0.0,91,0.00,,,0.00,Wunderground v.1.13,2013-01-16 15:45:00,
2013-01-16 10:55:00,30.9,28.6,29.99,NNW,338,0.0,0.0,91,0.00,,,0.00,Wunderground v.1.13,2013-01-16 15:55:00,
2013-01-16 11:00:00,31.0,28.7,29.99,NNW,337,0.0,0.0,91,0.00,,,0.00,Wunderground v.1.13,2013-01-16 16:00:00,
2013-01-16 11:05:00,31.1,28.8,29.98,NNW,338,0.0,0.0,91,0.00,,,0.00,Wunderground v.1.13,2013-01-16 16:05:00,
2013-01-16 11:10:00,31.2,28.9,29.97,NNW,338,0.0,0.0,91,0.00,,,0.00,Wunderground v.1.13,2013-01-16 16:10:00,
2013-01-16 11:20:00,31.4,29.3,29.97,NNW,337,0.0,0.0,92,0.00,,,0.00,Wunderground v.1.13,2013-01-16 16:20:00,
2013-01-16 11:25:00,31.4,29.3,29.97,NNW,338,0.0,0.0,92,0.00,,,0.00,Wunderground v.1.13,2013-01-16 16:25:00,
2013-01-16 11:30:00,31.5,29.2,29.96,NNW,338,0.0,0.0,91,0.00,,,0.00,Wunderground v.1.13,2013-01-16 16:30:00,
2013-01-16 11:40:00,31.5,29.4,29.96,NNW,337,0.0,0.0,92,0.00,,,0.00,Wunderground v.1.13,2013-01-16 16:40:00,
2013-01-16 11:45:00,31.6,29.3,29.95,NNW,338,0.0,0.0,91,0.00,,,0.00,Wunderground v.1.13,2013-01-16 16:45:00,
2013-01-16 11:50:00,31.6,29.5,29.95,NNW,337,0.0,0.0,92,0.00,,,0.00,Wunderground v.1.13,2013-01-16 16:50:00,
2013-01-16 12:00:00,31.6,29.3,29.96,NNW,338,0.0,0.0,91,0.00,,,0.00,Wunderground v.1.13,2013-01-16 17:00:00,
2013-01-16 12:05:00,31.6,29.3,29.96,NNW,338,0.0,0.0,91,0.00,,,0.00,Wunderground v.1.13,2013-01-16 17:05:00,
2013-01-16 12:10:00,31.6,29.3,29.96,NNW,338,0.0,0.0,91,0.00,,,0.00,Wunderground v.1.13,2013-01-16 17:10:00,
2013-01-16 12:20:00,31.6,29.3,29.94,NNW,338,0.0,0.0,91,0.00,,,0.00,Wunderground v.1.13,2013-01-16 17:20:00,
2013-01-16 12:25:00,31.6,29.3,29.93,NNW,338,0.0,0.0,91,0.00,,,0.00,Wunderground v.1.13,2013-01-16 17:25:00,
2013-01-16 12:30:00,31.6,29.3,29.93,NNW,337,0.0,0.0,91,0.00,,,0.00,Wunderground v.1.13,2013-01-16 17:30:00,
2013-01-16 12:35:00,31.6,29.3,29.93,NNW,337,0.0,0.0,91,0.00,,,0.00,Wunderground v.1.13,2013-01-16 17:35:00,
2013-01-16 12:45:00,31.7,29.6,29.93,NNW,338,0.0,0.0,92,0.00,,,0.00,Wunderground v.1.13,2013-01-16 17:45:00,
2013-01-16 12:50:00,31.7,29.6,29.93,NNW,338,0.0,0.0,92,0.00,,,0.00,Wunderground v.1.13,2013-01-16 17:50:00,
2013-01-16 12:55:00,31.7,29.6,29.93,NNW,338,0.0,0.0,92,0.00,,,0.00,Wunderground v.1.13,2013-01-16 17:55:00,
2013-01-16 13:05:00,31.8,29.7,29.93,NNW,338,0.0,0.0,92,0.00,,,0.00,Wunderground v.1.13,2013-01-16 18:05:00,
2013-01-16 13:10:00,31.8,29.7,29.92,NNW,338,0.0,0.0,92,0.00,,,0.00,Wunderground v.1.13,2013-01-16 18:10:00,
2013-01-16 13:15:00,31.9,29.8,29.92,NNW,338,0.0,0.0,92,0.00,,,0.00,Wunderground v.1.13,2013-01-16 18:15:00,
2013-01-16 13:25:00,31.9,29.8,29.91,NNW,338,0.0,0.0,92,0.00,,,0.00,Wunderground v.1.13,2013-01-16 18:25:00,
2013-01-16 13:30:00,31.9,29.8,29.90,NNW,337,0.0,0.0,92,0.00,,,0.00,Wunderground v.1.13,2013-01-16 18:30:00,
2013-01-16 13:35:00,31.9,29.8,29.89,NNW,338,0.0,0.0,92,0.00,,,0.00,Wunderground v.1.13,2013-01-16 18:35:00,
2013-01-16 13:40:00,32.0,29.9,29.88,NNW,337,0.0,0.0,92,0.00,,,0.00,Wunderground v.1.13,2013-01-16 18:40:00,
2013-01-16 13:50:00,32.1,30.0,29.88,NNW,338,0.0,0.0,92,0.00,,,0.00,Wunderground v.1.13,2013-01-16 18:50:00,
2013-01-16 13:55:00,32.0,29.9,29.86,NNW,338,0.0,0.0,92,0.00,,,0.00,Wunderground v.1.13,2013-01-16 18:55:00,
2013-01-16 14:00:00,32.0,29.9,29.85,NNW,338,0.0,0.0,92,0.00,,,0.00,Wunderground v.1.13,2013-01-16 19:00:00,
2013-01-16 14:10:00,32.0,29.9,29.85,NNW,338,0.0,0.0,92,0.00,,,0.00,Wunderground v.1.13,2013-01-16 19:10:00,
2013-01-16 14:15:00,31.9,29.8,29.86,NNW,338,0.0,0.0,92,0.00,,,0.00,Wunderground v.1.13,2013-01-16 19:15:00,
2013-01-16 14:20:00,31.9,29.8,29.85,NNW,338,0.0,0.0,92,0.00,,,0.00,Wunderground v.1.13,2013-01-16 19:20:00,
2013-01-16 14:25:00,31.9,29.8,29.83,NNW,338,0.0,0.0,92,0.00,,,0.00,Wunderground v.1.13,2013-01-16 19:25:00,
2013-01-16 14:35:00,31.9,29.8,29.86,NNW,338,0.0,0.0,92,0.00,,,0.00,Wunderground v.1.13,2013-01-16 19:35:00,
2013-01-16 14:40:00,31.9,29.8,29.86,NNW,338,0.0,0.0,92,0.00,,,0.00,Wunderground v.1.13,2013-01-16 19:40:00,
2013-01-16 14:50:00,31.9,29.8,29.86,NNW,338,0.0,0.0,92,0.00,,,0.00,Wunderground v.1.13,2013-01-16 19:50:00,
2013-01-16 14:55:00,31.9,29.8,29.85,NNW,338,0.0,0.0,92,0.00,,,0.00,Wunderground v.1.13,2013-01-16 19:55:00,
2013-01-16 15:00:00,31.9,29.8,29.86,NNW,338,0.0,0.0,92,0.00,,,0.00,Wunderground v.1.13,2013-01-16 20:00:00,
2013-01-16 15:05:00,31.9,29.8,29.86,NNW,338,0.0,0.0,92,0.00,,,0.00,Wunderground v.1.13,2013-01-16 20:05:00,
2013-01-16 15:10:00,31.9,29.8,29.88,NNW,338,0.0,0.0,92,0.00,,,0.00,Wunderground v.1.13,2013-01-16 20:10:00,
2013-01-16 15:20:00,31.9,29.8,29.88,NNW,338,0.0,0.0,92,0.00,,,0.01,Wunderground v.1.13,2013-01-16 20:20:00,
2013-01-16 15:25:00,31.9,29.8,29.87,NNW,338,0.0,0.0,92,0.00,,,0.01,Wunderground v.1.13,2013-01-16 20:25:00,
2013-01-16 15:30:00,31.9,29.8,29.87,NNW,338,0.0,0.0,92,0.00,,,0.01,Wunderground v.1.13,2013-01-16 20:30:00,
2013-01-16 15:40:00,31.9,30.1,29.87,NNW,338,0.0,0.0,93,0.00,,,0.01,Wunderground v.1.13,2013-01-16 20:40:00,
2013-01-16 15:45:00,31.9,30.1,29.87,NNW,338,0.0,0.0,93,0.00,,,0.01,Wunderground v.1.13,2013-01-16 20:45:00,
2013-01-16 15:50:00,31.9,30.1,29.86,NNW,338,0.0,0.0,93,0.00,,,0.01,Wunderground v.1.13,2013-01-16 20:50:00,
2013-01-16 16:00:00,32.0,30.2,29.86,NNW,338,0.0,0.0,93,0.00,,,0.01,Wunderground v.1.13,2013-01-16 21:00:00,
2013-01-16 16:05:00,32.0,30.2,29.86,NNW,338,0.0,0.0,93,0.00,,,0.01,Wunderground v.1.13,2013-01-16 21:05:00,
2013-01-16 16:10:00,31.9,30.1,29.87,NNW,338,0.0,0.0,93,0.00,,,0.01,Wunderground v.1.13,2013-01-16 21:10:00,
2013-01-16 16:15:00,31.9,30.1,29.87,NNW,338,0.0,0.0,93,0.00,,,0.01,Wunderground v.1.13,2013-01-16 21:15:00,
2013-01-16 16:25:00,31.9,30.1,29.87,NNW,338,0.0,0.0,93,0.00,,,0.01,Wunderground v.1.13,2013-01-16 21:25:00,
2013-01-16 16:30:00,31.9,30.1,29.87,NNW,338,0.0,0.0,93,0.00,,,0.01,Wunderground v.1.13,2013-01-16 21:30:00,
2013-01-16 16:35:00,31.9,30.1,29.87,NNW,338,0.0,0.0,93,0.00,,,0.01,Wunderground v.1.13,2013-01-16 21:35:00,
2013-01-16 16:45:00,31.8,30.0,29.86,NNW,338,0.0,0.0,93,0.00,,,0.01,Wunderground v.1.13,2013-01-16 21:45:00,
2013-01-16 16:50:00,31.8,30.0,29.86,NNW,338,0.0,0.0,93,0.00,,,0.01,Wunderground v.1.13,2013-01-16 21:50:00,
2013-01-16 16:55:00,31.8,30.0,29.87,NNW,338,0.0,0.0,93,0.00,,,0.01,Wunderground v.1.13,2013-01-16 21:55:00,
2013-01-16 17:05:00,31.8,30.0,29.87,NNW,338,0.0,0.0,93,0.00,,,0.01,Wunderground v.1.13,2013-01-16 22:05:00,
2013-01-16 17:10:00,31.7,29.9,29.86,NNW,338,0.0,0.0,93,0.00,,,0.01,Wunderground v.1.13,2013-01-16 22:10:00,
2013-01-16 17:15:00,31.8,30.0,29.87,NNW,337,0.0,0.0,93,0.00,,,0.01,Wunderground v.1.13,2013-01-16 22:15:00,
2013-01-16 17:20:00,31.7,29.9,29.87,NNW,338,0.0,0.0,93,0.00,,,0.01,Wunderground v.1.13,2013-01-16 22:20:00,
2013-01-16 17:30:00,31.7,29.9,29.87,NNW,338,0.0,0.0,93,0.00,,,0.01,Wunderground v.1.13,2013-01-16 22:30:00,
2013-01-16 17:35:00,31.7,29.9,29.87,NNW,338,0.0,0.0,93,0.00,,,0.01,Wunderground v.1.13,2013-01-16 22:35:00,
2013-01-16 17:40:00,31.7,29.9,29.87,NNW,338,0.0,0.0,93,0.00,,,0.01,Wunderground v.1.13,2013-01-16 22:40:00,
2013-01-16 17:50:00,31.7,29.9,29.86,NNW,338,0.0,0.0,93,0.00,,,0.01,Wunderground v.1.13,2013-01-16 22:50:00,
2013-01-16 17:55:00,31.7,29.9,29.86,NNW,338,0.0,0.0,93,0.00,,,0.01,Wunderground v.1.13,2013-01-16 22:55:00,
2013-01-16 18:00:00,31.7,29.9,29.86,NNW,338,0.0,0.0,93,0.00,,,0.01,Wunderground v.1.13,2013-01-16 23:00:00,
2013-01-16 18:05:00,31.7,29.9,29.87,NNW,338,0.0,0.0,93,0.00,,,0.01,Wunderground v.1.13,2013-01-16 23:05:00,
2013-01-16 18:15:00,31.7,29.9,29.87,NNW,338,0.0,0.0,93,0.00,,,0.01,Wunderground v.1.13,2013-01-16 23:15:00,
2013-01-16 18:20:00,31.7,29.9,29.87,NNW,338,0.0,0.0,93,0.00,,,0.01,Wunderground v.1.13,2013-01-16 23:20:00,
2013-01-16 18:30:00,31.6,29.8,29.87,NNW,338,0.0,0.0,93,0.00,,,0.01,Wunderground v.1.13,2013-01-16 23:30:00,
2013-01-16 18:35:00,31.7,29.9,29.86,NNW,338,0.0,0.0,93,0.00,,,0.01,Wunderground v.1.13,2013-01-16 23:35:00,
2013-01-16 18:40:00,31.7,29.9,29.86,NNW,338,0.0,0.0,93,0.00,,,0.01,Wunderground v.1.13,2013-01-16 23:40:00,
2013-01-16 18:45:00,31.6,29.8,29.86,NNW,338,0.0,0.0,93,0.00,,,0.01,Wunderground v.1.13,2013-01-16 23:45:00,
2013-01-16 18:55:00,31.6,29.8,29.85,NNW,338,0.0,0.0,93,0.00,,,0.01,Wunderground v.1.13,2013-01-16 23:55:00,
2013-01-16 19:00:00,31.7,29.9,29.85,NNW,338,0.0,0.0,93,0.00,,,0.01,Wunderground v.1.13,2013-01-17 00:00:00,
2013-01-16 19:05:00,31.7,29.9,29.84,NNW,338,0.0,0.0,93,0.00,,,0.01,Wunderground v.1.13,2013-01-17 00:05:00,
2013-01-16 19:10:00,31.7,29.9,29.85,NNW,338,0.0,0.0,93,0.00,,,0.01,Wunderground v.1.13,2013-01-17 00:10:00,
2013-01-16 19:20:00,31.7,29.9,29.85,NNW,337,0.0,0.0,93,0.00,,,0.01,Wunderground v.1.13,2013-01-17 00:20:00,
2013-01-16 19:25:00,31.7,29.9,29.84,NNW,337,0.0,0.0,93,0.00,,,0.01,Wunderground v.1.13,2013-01-17 00:25:00,
2013-01-16 19:35:00,31.7,29.9,29.84,NNW,338,0.0,0.0,93,0.00,,,0.01,Wunderground v.1.13,2013-01-17 00:35:00,
2013-01-16 19:40:00,31.7,29.9,29.85,NNW,338,0.0,0.0,93,0.00,,,0.01,Wunderground v.1.13,2013-01-17 00:40:00,
2013-01-16 19:45:00,31.7,29.9,29.84,NNW,338,0.0,0.0,93,0.00,,,0.01,Wunderground v.1.13,2013-01-17 00:45:00,
2013-01-16 19:55:00,31.7,29.9,29.86,NNW,338,0.0,0.0,93,0.00,,,0.01,Wunderground v.1.13,2013-01-17 00:55:00,
2013-01-16 20:00:00,31.7,29.9,29.86,NNW,338,0.0,0.0,93,0.00,,,0.01,Wunderground v.1.13,2013-01-17 01:00:00,
2013-01-16 20:10:00,31.7,29.9,29.86,NNW,338,0.0,0.0,93,0.00,,,0.01,Wunderground v.1.13,2013-01-17 01:10:00,
2013-01-16 20:15:00,31.7,30.2,29.86,NNW,338,0.0,0.0,94,0.00,,,0.01,Wunderground v.1.13,2013-01-17 01:15:00,
2013-01-16 20:20:00,31.7,30.2,29.86,NNW,337,0.0,0.0,94,0.00,,,0.01,Wunderground v.1.13,2013-01-17 01:20:00,
2013-01-16 20:25:00,31.7,30.2,29.86,NNW,338,0.0,0.0,94,0.00,,,0.01,Wunderground v.1.13,2013-01-17 01:25:00,
2013-01-16 20:35:00,31.8,30.3,29.86,NNW,338,0.0,0.0,94,0.00,,,0.01,Wunderground v.1.13,2013-01-17 01:35:00,
2013-01-16 20:40:00,31.8,30.3,29.85,NNW,337,0.0,0.0,94,0.00,,,0.01,Wunderground v.1.13,2013-01-17 01:40:00,
2013-01-16 20:45:00,31.8,30.3,29.84,NNW,338,0.0,0.0,94,0.00,,,0.01,Wunderground v.1.13,2013-01-17 01:45:00,
2013-01-16 20:55:00,31.9,30.4,29.85,NNW,338,0.0,0.0,94,0.00,,,0.01,Wunderground v.1.13,2013-01-17 01:55:00,
2013-01-16 21:00:00,31.9,30.4,29.85,NNW,337,0.0,0.0,94,0.00,,,0.01,Wunderground v.1.13,2013-01-17 02:00:00,
2013-01-16 21:05:00,31.9,30.4,29.85,NNW,337,0.0,0.0,94,0.00,,,0.01,Wunderground v.1.13,2013-01-17 02:05:00,
2013-01-16 21:15:00,32.0,30.5,29.86,NNW,337,0.0,0.0,94,0.00,,,0.01,Wunderground v.1.13,2013-01-17 02:15:00,
2013-01-16 21:20:00,32.0,30.5,29.86,NNW,337,0.0,0.0,94,0.00,,,0.01,Wunderground v.1.13,2013-01-17 02:20:00,
2013-01-16 21:25:00,32.1,30.6,29.86,NNW,337,0.0,0.0,94,0.00,,,0.01,Wunderground v.1.13,2013-01-17 02:25:00,
2013-01-16 21:35:00,32.2,30.7,29.85,NNW,337,0.0,0.0,94,0.00,,,0.01,Wunderground v.1.13,2013-01-17 02:35:00,
2013-01-16 21:40:00,32.2,30.7,29.85,NW,319,0.0,0.0,94,0.00,,,0.01,Wunderground v.1.13,2013-01-17 02:40:00,
2013-01-16 21:45:00,32.3,30.8,29.85,NW,319,0.0,0.0,94,0.00,,,0.01,Wunderground v.1.13,2013-01-17 02:45:00,
2013-01-16 21:55:00,32.3,30.8,29.85,NW,319,0.0,0.0,94,0.00,,,0.01,Wunderground v.1.13,2013-01-17 02:55:00,
2013-01-16 22:00:00,32.4,30.9,29.85,NW,319,0.0,0.0,94,0.00,,,0.01,Wunderground v.1.13,2013-01-17 03:00:00,
2013-01-16 22:05:00,32.4,30.9,29.86,NW,319,0.0,0.0,94,0.00,,,0.01,Wunderground v.1.13,2013-01-17 03:05:00,
2013-01-16 22:15:00,32.4,30.9,29.85,NW,318,0.0,0.0,94,0.00,,,0.01,Wunderground v.1.13,2013-01-17 03:15:00,
2013-01-16 22:20:00,32.4,30.9,29.85,NW,319,0.0,0.0,94,0.00,,,0.01,Wunderground v.1.13,2013-01-17 03:20:00,
2013-01-16 22:25:00,32.4,30.9,29.86,NW,319,0.0,0.0,94,0.00,,,0.01,Wunderground v.1.13,2013-01-17 03:25:00,
2013-01-16 22:35:00,32.4,30.9,29.85,NW,319,0.0,0.0,94,0.00,,,0.01,Wunderground v.1.13,2013-01-17 03:35:00,
2013-01-16 22:40:00,32.4,30.9,29.85,NW,319,0.0,0.0,94,0.00,,,0.01,Wunderground v.1.13,2013-01-17 03:40:00,
2013-01-16 22:45:00,32.4,30.9,29.85,NW,319,0.0,0.0,94,0.00,,,0.01,Wunderground v.1.13,2013-01-17 03:45:00,
2013-01-16 22:50:00,32.4,30.9,29.85,NW,318,0.0,0.0,94,0.00,,,0.01,Wunderground v.1.13,2013-01-17 03:50:00,
2013-01-16 23:00:00,32.4,30.9,29.85,NW,318,0.0,0.0,94,0.00,,,0.01,Wunderground v.1.13,2013-01-17 04:00:00,
2013-01-16 23:05:00,32.3,30.8,29.85,NW,318,0.0,0.0,94,0.00,,,0.01,Wunderground v.1.13,2013-01-17 04:05:00,
2013-01-16 23:10:00,32.4,30.9,29.85,NW,318,0.0,0.0,94,0.00,,,0.01,Wunderground v.1.13,2013-01-17 04:10:00,
2013-01-16 23:20:00,32.3,30.8,29.85,NW,317,0.0,0.0,94,0.00,,,0.01,Wunderground v.1.13,2013-01-17 04:20:00,
2013-01-16 23:25:00,32.3,30.8,29.85,NW,317,0.0,0.0,94,0.00,,,0.01,Wunderground v.1.13,2013-01-17 04:25:00,
2013-01-16 23:30:00,32.3,30.8,29.85,NW,317,0.0,0.0,94,0.00,,,0.01,Wunderground v.1.13,2013-01-17 04:30:00,
2013-01-16 23:40:00,32.3,30.8,29.85,NW,317,0.0,0.0,94,0.00,,,0.01,Wunderground v.1.13,2013-01-17 04:40:00,
2013-01-16 23:45:00,32.3,30.8,29.85,NW,317,0.0,0.0,94,0.00,,,0.01,Wunderground v.1.13,2013-01-17 04:45:00,
2013-01-16 23:50:00,32.3,30.8,29.85,NW,317,0.0,0.0,94,0.00,,,0.01,Wunderground v.1.13,2013-01-17 04:50:00,